Flag for Netherlands Weather past 2 weeks in Tilburg, Netherlands

Now
46 °F

Cool.


Feels Like: 45 °F
Forecast: 46 / 63 °F
Wind: 3 mph from South

Location: Gilze-Rijen

Current Time: May 31, 2015 at 1:01:39 AM

Latest Report: May 31, 2015 at 12:25 AM


Visibility: N/A

Pressure: 29.98 "Hg

Humidity: 82%

Dew point: 41 °F

Location of TilburgLocation

Historic Weather in Tilburg — Graph

°F

Tilburg temperature yesterday

Maximum temperature yesterday: 59 °F (at 2:55 PM)
Minimum temperature yesterday: 46 °F (at 3:25 AM)
Average temperature yesterday: 52 °F

Past Weeks' High & Low Weather Summary

 TemperatureHumidityPressure
High68 °F (May 22, 2:55 PM)100% (May 16, 11:59 AM)30.33 "Hg (May 16, 11:59 AM)
Low41 °F (May 20, 3:55 AM)24% (May 24, 6:25 PM)29.62 "Hg (May 18, 8:25 PM)
Average54 °F72%30.05 "Hg
* Reported May 15 11:25 PM — May 30 11:25 PM, Tilburg, Weather by CustomWeather, © 2015

Note: Actual official high and low records may vary slightly from our data, if they occured in-between our weather recording intervals... More about our weather records

Advertising

Tilburg weather history for previous 24 hours

 ConditionsComfort  
Time TempWeatherWind HumidityBarometerVisibility
11:25 PM
Sat, May 30
48 °FCool.2 mph82%29.98 "HgN/A
10:55 PM50 °FPartly cloudy.2 mph76%30.01 "HgN/A
10:25 PM48 °FBroken clouds.2 mph82%30.01 "HgN/A
9:55 PM50 °FScattered clouds.No wind76%30.01 "HgN/A
9:25 PM54 °FPassing clouds.2 mph63%30.01 "HgN/A
8:55 PM55 °FRefreshingly cool.5 mph55%30.01 "HgN/A
8:25 PM57 °FPartly sunny.7 mph51%30.01 "HgN/A
7:55 PM57 °FPassing clouds.12 mph51%30.01 "HgN/A
7:25 PM59 °FRefreshingly cool.10 mph48%30.01 "HgN/A
6:55 PM59 °FPassing clouds.13 mph45%30.01 "HgN/A
6:25 PM59 °FRefreshingly cool.15 mph48%30.01 "HgN/A
5:55 PM59 °FPassing clouds.15 mph48%29.98 "HgN/A
5:25 PM59 °FPassing clouds.12 mph48%29.98 "HgN/A
4:55 PM59 °FRefreshingly cool.13 mph45%29.98 "HgN/A
4:25 PM59 °FScattered clouds.15 mph48%29.98 "HgN/A
3:55 PM59 °FPassing clouds.16 mph45%29.98 "HgN/A
3:25 PM59 °FPartly sunny.17 mph55%29.98 "HgN/A
2:55 PM59 °FPassing clouds.17 mph55%29.95 "HgN/A
2:25 PM57 °FScattered clouds.15 mph55%29.95 "HgN/A
1:55 PM57 °FPartly sunny.16 mph59%29.95 "HgN/A
1:25 PM57 °FPassing clouds.16 mph59%29.95 "HgN/A
12:55 PM57 °FPassing clouds.9 mph72%29.95 "HgN/A
12:25 PM52 °FScattered clouds.8 mph82%29.92 "HgN/A
11:55 AM50 °FPartly sunny.8 mph82%29.95 "HgN/A
11:25 AM46 °FThunderstorms. Broken clouds.12 mph82%29.95 "Hg4 mi
10:55 AM57 °FScattered clouds.12 mph59%29.89 "HgN/A
10:25 AM55 °FScattered clouds.14 mph63%29.89 "HgN/A
9:55 AM55 °FPassing clouds.12 mph67%29.89 "HgN/A
9:25 AM54 °FPassing clouds.8 mph77%29.89 "HgN/A
8:55 AM52 °FPassing clouds.6 mph82%29.89 "HgN/A
8:25 AM50 °FDrizzle. Broken clouds.6 mph82%29.86 "HgN/A
7:55 AM50 °FDrizzle. Broken clouds.6 mph82%29.86 "HgN/A
7:25 AM48 °FCool.6 mph87%29.86 "HgN/A
6:55 AM46 °FCool.6 mph93%29.86 "HgN/A
6:25 AM46 °FFog.6 mph93%29.83 "Hg4 mi
5:59 AM46 °FFog.6 mph93%29.83 "Hg4 mi
5:55 AM46 °FFog.6 mph93%29.83 "Hg5 mi
5:25 AM46 °FPassing clouds.6 mph93%29.83 "HgN/A
4:55 AM46 °FPassing clouds.5 mph93%29.83 "HgN/A
4:25 AM46 °FPassing clouds.5 mph93%29.83 "HgN/A
3:55 AM46 °FPassing clouds.5 mph93%29.80 "HgN/A
3:25 AM46 °FPassing clouds.6 mph93%29.80 "HgN/A
2:55 AM48 °FPassing clouds.6 mph87%29.80 "HgN/A
2:25 AM48 °FFog.3 mph94%29.80 "Hg5 mi
1:55 AM48 °FFog.6 mph94%29.80 "Hg5 mi
1:25 AM48 °FFog.6 mph94%29.77 "Hg4 mi
Weather by CustomWeather, © 2015

See weather overviewHow to use our weather pages